| time (UTC) | temp F | wind direction | speed MPH | gust MPH | rain 1hr in | rain 24hr in | rain mn in | humidity % | barometer mb |
| 20260506062017 | 70 | 248 | 2.0 | 7.0 | 0.00 | 0.00 | 0.00 | 55 | 1015.5 |
| 20260506061017 | 71 | 225 | 2.0 | 6.0 | 0.00 | 0.00 | 0.00 | 53 | 1015.6 |
| 20260506051017 | 71 | 203 | 2.0 | 5.0 | 0.00 | 0.00 | 0.00 | 49 | 1015.5 |
| 20260506045037 | 71 | 203 | 1.0 | 6.0 | 0.00 | 0.00 | 0.00 | 51 | 1015.0 |
| 20260506044016 | 71 | 180 | 2.0 | 7.0 | 0.00 | 0.00 | 0.00 | 50 | 1015.4 |
| 20260506043016 | 70 | 180 | 2.0 | 7.0 | 0.00 | 0.00 | 0.00 | 50 | 1015.5 |
| 20260506042037 | 70 | 203 | 2.0 | 5.0 | 0.00 | 0.00 | 0.00 | 50 | 1015.5 |
| 20260506041016 | 70 | 0.0 | 2.0 | 0.00 | 0.00 | 0.00 | 49 | 1015.5 | |
| 20260506040016 | 70 | 248 | 1.0 | 3.0 | 0.00 | 0.00 | 0.00 | 49 | 1015.3 |
| 20260506035016 | 70 | 180 | 1.0 | 3.0 | 0.00 | 0.00 | 0.00 | 49 | 1015.3 |
| 20260506034016 | 70 | 180 | 1.0 | 3.0 | 0.00 | 0.00 | 0.00 | 46 | 1015.4 |
| 20260506033036 | 70 | 180 | 1.0 | 3.0 | 0.00 | 0.00 | 0.00 | 45 | 1015.2 |
| 20260506032036 | 71 | 180 | 2.0 | 5.0 | 0.00 | 0.00 | 0.00 | 43 | 1015.3 |
| 20260506031017 | 71 | 180 | 1.0 | 4.0 | 0.00 | 0.00 | 0.00 | 43 | 1015.2 |
| 20260506030016 | 70 | 158 | 1.0 | 4.0 | 0.00 | 0.00 | 0.00 | 44 | 1015.2 |
| 20260506025016 | 70 | 180 | 1.0 | 6.0 | 0.00 | 0.00 | 0.00 | 43 | 1015.3 |
| 20260506024036 | 70 | 180 | 1.0 | 4.0 | 0.00 | 0.00 | 0.00 | 44 | 1015.2 |
| 20260506023016 | 70 | 315 | 1.0 | 4.0 | 0.00 | 0.00 | 0.00 | 44 | 1015.1 |
| 20260506022016 | 70 | 0.0 | 1.0 | 0.00 | 0.00 | 0.00 | 44 | 1015.0 | |
| 20260506021016 | 71 | 0.0 | 2.0 | 0.00 | 0.00 | 0.00 | 44 | 1014.8 | |
| 20260506020016 | 71 | 0.0 | 0.0 | 0.00 | 0.00 | 0.00 | 44 | 1014.6 | |
| 20260506015057 | 71 | 0.0 | 0.0 | 0.00 | 0.00 | 0.00 | 42 | 1014.7 | |
| 20260506014016 | 71 | 0.0 | 1.0 | 0.00 | 0.00 | 0.00 | 42 | 1014.9 | |
| 20260506013016 | 72 | 180 | 1.0 | 4.0 | 0.00 | 0.00 | 0.00 | 42 | 1014.5 |
| 20260506012016 | 72 | 180 | 2.0 | 6.0 | 0.00 | 0.00 | 0.00 | 41 | 1014.4 |
| 20260506011036 | 72 | 180 | 2.0 | 4.0 | 0.00 | 0.00 | 0.00 | 41 | 1014.5 |
| 20260506010017 | 72 | 180 | 1.0 | 5.0 | 0.00 | 0.00 | 0.00 | 42 | 1014.5 |
| 20260506005016 | 73 | 0.0 | 0.0 | 0.00 | 0.00 | 0.00 | 42 | 1014.4 | |
| 20260506004016 | 73 | 158 | 1.0 | 4.0 | 0.00 | 0.00 | 0.00 | 41 | 1014.4 |
| 20260506003016 | 74 | 180 | 1.0 | 4.0 | 0.00 | 0.00 | 0.00 | 41 | 1014.3 |
| 20260506002016 | 74 | 158 | 1.0 | 5.0 | 0.00 | 0.00 | 0.00 | 41 | 1014.2 |
| 20260506001016 | 74 | 0 | 1.0 | 6.0 | 0.00 | 0.00 | 0.00 | 42 | 1014.4 |
| 20260506000016 | 74 | 0 | 1.0 | 4.0 | 0.00 | 0.00 | 0.00 | 42 | 1014.2 |
| 20260505235016 | 75 | 0.0 | 0.0 | 0.00 | 0.00 | 0.00 | 43 | 1014.3 | |
| 20260505234015 | 75 | 0.0 | 0.0 | 0.00 | 0.00 | 0.00 | 42 | 1014.2 | |
| 20260505233016 | 76 | 180 | 1.0 | 4.0 | 0.00 | 0.00 | 0.00 | 39 | 1014.3 |
| 20260505232016 | 76 | 180 | 2.0 | 7.0 | 0.00 | 0.00 | 0.00 | 38 | 1014.3 |
| 20260505231015 | 76 | 0 | 2.0 | 5.0 | 0.00 | 0.00 | 0.00 | 37 | 1014.1 |
| 20260505230036 | 76 | 0 | 1.0 | 5.0 | 0.00 | 0.00 | 0.00 | 38 | 1014.3 |
| 20260505225015 | 77 | 0 | 1.0 | 3.0 | 0.00 | 0.00 | 0.00 | 37 | 1014.4 |
| 20260505224036 | 77 | 0 | 2.0 | 6.0 | 0.00 | 0.00 | 0.00 | 36 | 1014.4 |
| 20260505223016 | 77 | 0.0 | 1.0 | 0.00 | 0.00 | 0.00 | 40 | 1014.4 | |
| 20260505222035 | 78 | 0 | 2.0 | 10.0 | 0.00 | 0.00 | 0.00 | 36 | 1014.4 |
| 20260505221015 | 79 | 0 | 2.0 | 6.0 | 0.00 | 0.00 | 0.00 | 36 | 1014.3 |
| 20260505220015 | 79 | 0 | 3.0 | 8.0 | 0.00 | 0.00 | 0.00 | 36 | 1014.1 |
| 20260505215015 | 80 | 203 | 3.0 | 9.0 | 0.00 | 0.00 | 0.00 | 33 | 1014.5 |
| 20260505214035 | 80 | 158 | 3.0 | 6.0 | 0.00 | 0.00 | 0.00 | 34 | 1014.5 |
| 20260505213016 | 80 | 203 | 3.0 | 8.0 | 0.00 | 0.00 | 0.00 | 32 | 1014.5 |
| 20260505212035 | 80 | 203 | 2.0 | 6.0 | 0.00 | 0.00 | 0.00 | 34 | 1014.6 |
| 20260505211015 | 81 | 203 | 3.0 | 10.0 | 0.00 | 0.00 | 0.00 | 34 | 1014.7 |
| 20260505210017 | 81 | 135 | 2.0 | 7.0 | 0.00 | 0.00 | 0.00 | 32 | 1014.7 |
| 20260505205017 | 81 | 180 | 2.0 | 7.0 | 0.00 | 0.00 | 0.00 | 34 | 1014.8 |
| 20260505204016 | 81 | 203 | 3.0 | 7.0 | 0.00 | 0.00 | 0.00 | 33 | 1014.8 |
| 20260505203018 | 81 | 180 | 3.0 | 7.0 | 0.00 | 0.00 | 0.00 | 32 | 1015.0 |
| 20260505202017 | 82 | 158 | 3.0 | 6.0 | 0.00 | 0.00 | 0.00 | 33 | 1015.1 |
| 20260505201017 | 82 | 203 | 3.0 | 6.0 | 0.00 | 0.00 | 0.00 | 32 | 1015.2 |
| 20260505200017 | 80 | 180 | 2.0 | 7.0 | 0.00 | 0.00 | 0.00 | 33 | 1015.4 |
| 20260505195017 | 81 | 203 | 4.0 | 9.0 | 0.00 | 0.00 | 0.00 | 31 | 1015.8 |
| 20260505194037 | 79 | 0 | 4.0 | 9.0 | 0.00 | 0.00 | 0.00 | 34 | 1016.0 |
| 20260505192018 | 80 | 180 | 2.0 | 8.0 | 0.00 | 0.00 | 0.00 | 35 | 1015.9 |
| 20260505191017 | 80 | 0 | 1.0 | 6.0 | 0.00 | 0.00 | 0.00 | 33 | 1016.0 |
| 20260505190017 | 81 | 0 | 2.0 | 5.0 | 0.00 | 0.00 | 0.00 | 33 | 1016.1 |
| 20260505185017 | 81 | 0 | 4.0 | 10.0 | 0.00 | 0.00 | 0.00 | 35 | 1016.2 |
| 20260505184017 | 80 | 0 | 2.0 | 8.0 | 0.00 | 0.00 | 0.00 | 36 | 1016.1 |
| 20260505183017 | 81 | 0 | 3.0 | 5.0 | 0.00 | 0.00 | 0.00 | 33 | 1016.3 |
| 20260505182017 | 81 | 0 | 3.0 | 10.0 | 0.00 | 0.00 | 0.00 | 34 | 1016.4 |
| 20260505181018 | 80 | 0 | 3.0 | 11.0 | 0.00 | 0.00 | 0.00 | 34 | 1016.7 |
| 20260505180016 | 81 | 0 | 2.0 | 3.0 | 0.00 | 0.00 | 0.00 | 36 | 1016.9 |
| 20260505175017 | 80 | 0 | 3.0 | 10.0 | 0.00 | 0.00 | 0.00 | 38 | 1017.1 |
| 20260505174017 | 81 | 0 | 2.0 | 4.0 | 0.00 | 0.00 | 0.00 | 36 | 1017.2 |
| 20260505173017 | 80 | 0 | 2.0 | 5.0 | 0.00 | 0.00 | 0.00 | 36 | 1017.3 |
| 20260505172017 | 79 | 0 | 2.0 | 6.0 | 0.00 | 0.00 | 0.00 | 37 | 1017.4 |
| 20260505171017 | 80 | 0 | 4.0 | 11.0 | 0.00 | 0.00 | 0.00 | 36 | 1017.4 |
| 20260505170017 | 79 | 0 | 2.0 | 6.0 | 0.00 | 0.00 | 0.00 | 39 | 1017.4 |
| 20260505165016 | 78 | 0 | 3.0 | 5.0 | 0.00 | 0.00 | 0.00 | 39 | 1017.2 |
| 20260505164016 | 78 | 0 | 2.0 | 6.0 | 0.00 | 0.00 | 0.00 | 38 | 1017.3 |
| 20260505163017 | 78 | 0 | 3.0 | 8.0 | 0.00 | 0.00 | 0.00 | 41 | 1017.4 |
| 20260505162016 | 77 | 0 | 4.0 | 9.0 | 0.00 | 0.00 | 0.00 | 39 | 1017.5 |
| 20260505161016 | 77 | 0 | 4.0 | 12.0 | 0.00 | 0.00 | 0.00 | 39 | 1017.6 |
| 20260505153016 | 73 | 0 | 1.0 | 3.0 | 0.00 | 0.00 | 0.00 | 52 | 1017.5 |
| 20260505152016 | 71 | 0 | 1.0 | 3.0 | 0.00 | 0.00 | 0.00 | 54 | 1017.4 |
| 20260505151016 | 70 | 0 | 3.0 | 8.0 | 0.00 | 0.00 | 0.00 | 54 | 1017.6 |
| 20260505125016 | 57 | 0 | 1.0 | 3.0 | 0.00 | 0.00 | 0.00 | 73 | 1017.0 |
| 20260505124016 | 56 | 0.0 | 0.0 | 0.00 | 0.00 | 0.00 | 74 | 1016.9 | |
| 20260505123037 | 56 | 0.0 | 0.0 | 0.00 | 0.00 | 0.00 | 76 | 1016.9 | |
| 20260505122016 | 55 | 0.0 | 2.0 | 0.00 | 0.00 | 0.00 | 79 | 1016.9 | |
| 20260505121016 | 54 | 180 | 1.0 | 3.0 | 0.00 | 0.00 | 0.00 | 80 | 1016.8 |
| 20260505120036 | 52 | 0.0 | 0.0 | 0.00 | 0.00 | 0.00 | 81 | 1016.9 | |
| 20260505115016 | 52 | 0.0 | 0.0 | 0.00 | 0.00 | 0.00 | 84 | 1016.7 | |
| 20260505114016 | 51 | 0.0 | 0.0 | 0.00 | 0.00 | 0.00 | 82 | 1016.4 | |
| 20260505113016 | 51 | 0.0 | 0.0 | 0.00 | 0.00 | 0.00 | 82 | 1016.3 | |
| 20260505112017 | 51 | 0.0 | 0.0 | 0.00 | 0.00 | 0.00 | 81 | 1016.1 | |
| 20260505111015 | 51 | 0.0 | 0.0 | 0.00 | 0.00 | 0.00 | 81 | 1016.0 | |
| 20260505102016 | 51 | 0.0 | 0.0 | 0.00 | 0.00 | 0.00 | 80 | 1015.9 | |
| 20260505101016 | 51 | 0.0 | 0.0 | 0.00 | 0.00 | 0.00 | 80 | 1015.9 | |
| 20260505100016 | 51 | 0.0 | 0.0 | 0.00 | 0.00 | 0.00 | 81 | 1016.3 | |
| 20260505095015 | 51 | 0.0 | 0.0 | 0.00 | 0.00 | 0.00 | 80 | 1016.2 | |
| 20260505094036 | 51 | 0.0 | 0.0 | 0.00 | 0.00 | 0.00 | 80 | 1016.1 | |
| 20260505093015 | 51 | 0.0 | 1.0 | 0.00 | 0.00 | 0.00 | 81 | 1016.0 | |
| 20260505092015 | 51 | 0.0 | 1.0 | 0.00 | 0.00 | 0.00 | 81 | 1016.0 | |
| 20260505091015 | 51 | 203 | 1.0 | 2.0 | 0.00 | 0.00 | 0.00 | 82 | 1016.1 |
| 20260505090037 | 51 | 0.0 | 0.0 | 0.00 | 0.00 | 0.00 | 82 | 1016.3 | |
| 20260505085038 | 51 | 0.0 | 1.0 | 0.00 | 0.00 | 0.00 | 83 | 1016.3 | |
| 20260505084037 | 51 | 0.0 | 1.0 | 0.00 | 0.00 | 0.00 | 84 | 1016.3 | |
| 20260505083017 | 51 | 0.0 | 2.0 | 0.00 | 0.00 | 0.00 | 84 | 1016.4 | |
| 20260505082016 | 51 | 0.0 | 0.0 | 0.00 | 0.00 | 0.00 | 84 | 1016.4 | |
| 20260505081017 | 51 | 0.0 | 0.0 | 0.00 | 0.00 | 0.00 | 84 | 1016.5 | |
| 20260505080018 | 51 | 0.0 | 0.0 | 0.00 | 0.00 | 0.00 | 83 | 1016.4 | |
| 20260505075017 | 51 | 0.0 | 0.0 | 0.00 | 0.00 | 0.00 | 83 | 1016.4 | |
| 20260505074017 | 51 | 0.0 | 0.0 | 0.00 | 0.00 | 0.00 | 81 | 1016.5 | |
| 20260505073037 | 52 | 0.0 | 0.0 | 0.00 | 0.00 | 0.00 | 81 | 1016.3 | |
| 20260505072017 | 52 | 0.0 | 0.0 | 0.00 | 0.00 | 0.00 | 80 | 1016.4 | |
| 20260505071017 | 52 | 0.0 | 0.0 | 0.00 | 0.00 | 0.00 | 79 | 1016.4 | |
| 20260505070017 | 52 | 0.0 | 0.0 | 0.00 | 0.00 | 0.00 | 79 | 1016.4 |